Dati Storici

Data ora Umidita' aria (%) Temperatura aria (°C) Rad globale (W/m²) Gonioanemometro (°) Tacoanemometro (m/s) Pioggia (mm)
06-06-2020 07:30 94 % 20.233 -75.335 0.552 0 0
06-06-2020 07:20 93.2 % 19.894 -78.053 1.346 0 0
06-06-2020 07:10 94.2 % 19.735 -78 1.195 0 0
06-06-2020 07:00 93.4 % 19.809 -76.9 2.515 0 0
06-06-2020 06:50 93.5 % 19.915 -72.091 1.328 0 0
06-06-2020 06:40 95 % 19.872 -79.199 0.526 0 0
06-06-2020 06:30 95.3 % 19.824 -74.101 1.05 0 0
06-06-2020 06:20 97.6 % 19.92 -77.498 1.144 0 0
06-06-2020 06:10 97.7 % 19.562 -77.87 1.175 0 0
06-06-2020 06:00 97.7 % 19.248 -74.511 1.073 0 0
06-06-2020 05:50 97.7 % 19.013 -72.777 1.182 0 0
06-06-2020 05:40 97.7 % 19.021 -75.087 0.782 0 0
06-06-2020 05:30 97.7 % 19.068 -76.956 1.147 0 0
06-06-2020 05:20 97.7 % 18.963 -77.225 1.02 0 0
06-06-2020 05:10 97.8 % 18.864 -76.908 1.232 0 0
06-06-2020 05:00 97.8 % 18.575 -82.543 0.307 0 0
06-06-2020 04:50 97.8 % 18.406 -78.599 0.84 0 0
06-06-2020 04:40 97.8 % 18.397 -79.195 0.519 0 0
06-06-2020 04:30 97.7 % 18.381 -79.384 0.949 0 0
06-06-2020 04:20 97.7 % 18.431 -76.037 1.075 0 0

I dati sono presentati in modo automatico a scopo informativo. In seguito a verifica i dati possono subire modifiche o essere invalidati e non riportati negli archivi definitivi.